User: anonymous   Login
Location: Caltech
(34.1382°N, 118.1253°W)
Time: 06:23:58
(UTC-08:00)
Language:

Cosmos-2242 - Orbit

View from above orbital plane
View from above orbital plane
View from above satellite
View from above satellite

Ground track
Ground track

The orbit data is extracted from the following two-line orbital elements,

1 22626U 93024A   14355.00147363  .00002873  00000-0  32183-3 0  2913
2 22626 082.5208 178.3924 0018176 256.1797 103.7397 14.86438097171019
Epoch (UTC): 21 December 2014 00:02:07
Eccentricity: 0.0018176
inclination: 82.5208°
perigee height: 596 km
apogee height: 622 km
right ascension of ascending node: 178.3924°
argument of perigee: 256.1797°
revolutions per day: 14.86438097
mean anomaly at epoch: 103.7397°
orbit number at epoch: 17101

The dashed part of the orbit path shows where the satellite is in the earth's shadow,  

DLR